Flag for USA

Past Weather in Allentown, Pennsylvania, USA — Yesterday and Last 2 Weeks

Now
69 °F

Light rain. Fog.


Feels Like: 69 °F
Forecast: 78 / 67 °F
Wind: 5 mph from Southeast

Location: Lehigh Valley International Airport
Current Time: Sep 28, 2020 at 2:20:05 am
Latest Report: Sep 28, 2020 at 12:51 am
Visibility: 5 mi
Pressure29.88 "Hg
Humidity: 93%
Dew Point: 67 °F
Location of AllentownLocation

Past Weather in Allentown — Graph

°F

Allentown Temperature Yesterday

Maximum temperature yesterday: 76 °F (at 1:51 pm)
Minimum temperature yesterday: 66 °F (at 5:26 am)
Average temperature yesterday: 70 °F

High & Low Weather Summary for the Past Weeks

 TemperatureHumidityPressure
High80 °F (Sep 23, 3:51 pm)100% (Sep 25, 3:19 am)30.61 "Hg (Sep 25, 3:19 am)
Low34 °F (Sep 21, 6:51 am)27% (Sep 22, 2:51 pm)29.85 "Hg (Sep 23, 3:51 pm)
Average60 °F72%30.13 "Hg
* Reported Sep 13 12:51 am — Sep 28 12:51 am, Allentown. Weather by CustomWeather, © 2020

Note: Actual official high and low records may vary slightly from our data, if they occured in-between our weather recording intervals... More about our weather records

Allentown Weather History for the Previous 24 Hours

Scroll right to see more
 ConditionsComfort  
Time TempWeatherWind HumidityBarometerVisibility
12:51 am
Mon, Sep 28
69 °FLight rain. Fog.5 mph93%29.88 "Hg5 mi
12:31 am69 °FLight rain. Fog.3 mph96%29.89 "Hg6 mi
12:21 am69 °FLight rain. Fog.5 mph96%29.90 "Hg4 mi
12:01 am69 °FHeavy rain. Fog.5 mph93%29.90 "Hg2 mi
11:00 pm
Sun, Sep 27
69 °FMostly cloudy.3 mph96%29.91 "Hg10 mi
10:30 pm70 °FMostly cloudy.3 mph93%29.91 "Hg10 mi
9:51 pm70 °FLight rain. Fog.3 mph93%29.90 "Hg3 mi
8:51 pm71 °FMostly cloudy.No wind84%29.90 "Hg10 mi
7:51 pm73 °FMostly cloudy.No wind79%29.90 "Hg10 mi
6:51 pm74 °FMostly cloudy.3 mph74%29.91 "Hg10 mi
5:59 pm75 °FMostly cloudy.3 mph71%29.92 "Hg10 mi
4:51 pm76 °FOvercast.No wind69%29.90 "Hg10 mi
3:51 pm75 °FMore clouds than sun.3 mph71%29.92 "Hg10 mi
2:51 pm76 °FMostly cloudy.5 mph69%29.93 "Hg10 mi
2:34 pm76 °FMostly cloudy.5 mph69%29.94 "Hg10 mi
1:51 pm76 °FMostly cloudy.3 mph69%29.95 "Hg10 mi
1:37 pm74 °FCloudy.3 mph74%29.97 "Hg10 mi
12:51 pm72 °FOvercast.5 mph78%29.98 "Hg10 mi
12:15 pm71 °FOvercast.5 mph78%30.00 "Hg10 mi
11:51 am70 °FOvercast.6 mph81%30.00 "Hg10 mi
10:51 am69 °FOvercast.7 mph84%30.01 "Hg10 mi
9:51 am69 °FOvercast.5 mph84%30.01 "Hg10 mi
9:18 am69 °FOvercast.5 mph84%30.01 "Hg10 mi
8:51 am68 °FLow clouds.No wind87%30.00 "Hg10 mi
8:34 am68 °FMostly cloudy.No wind87%30.01 "Hg10 mi
8:20 am68 °FPartly sunny.3 mph87%30.01 "Hg10 mi
8:07 am67 °FBroken clouds.5 mph90%30.01 "Hg10 mi
7:51 am67 °FPartly sunny.5 mph90%30.00 "Hg10 mi
7:33 am66 °FMore clouds than sun.6 mph93%30.00 "Hg10 mi
7:16 am66 °FMostly cloudy.5 mph93%30.00 "Hg10 mi
6:51 am66 °FOvercast.5 mph93%29.99 "Hg10 mi
5:51 am66 °FFog.No wind93%29.98 "Hg5 mi
5:26 am66 °FLight rain. Fog.3 mph93%29.98 "Hg5 mi
4:51 am67 °FOvercast.3 mph90%29.97 "Hg9 mi
4:18 am67 °FOvercast.3 mph90%29.98 "Hg7 mi
2:59 am67 °FLow clouds.5 mph90%30.00 "Hg10 mi
2:13 am68 °FOvercast.3 mph87%30.00 "Hg10 mi
Weather by CustomWeather, © 2020

See weather overview